User: anonymous   Login
Location: Cimarron National Grasslands
(37.1250°N, 101.7500°W)
Time: 03:48:23
(UTC-05:00)
Language:

Ariane Rocket - Orbit

View from above orbital plane
View from above orbital plane
View from above satellite
View from above satellite

Ground track
Ground track

The orbit data is extracted from the following two-line orbital elements,

1 23561U 95021B   15113.96773698  .00000691  00000-0  24548-3 0  9992
2 23561 098.7254 088.8217 0008166 067.2623 000.1777 14.37562687 48424
Epoch (UTC): 23 April 2015 23:13:32
Eccentricity: 0.0008166
inclination: 98.7254°
perigee height: 761 km
apogee height: 772 km
right ascension of ascending node: 88.8217°
argument of perigee: 67.2623°
revolutions per day: 14.37562687
mean anomaly at epoch: 0.1777°
orbit number at epoch: 4842

The dashed part of the orbit path shows where the satellite is in the earth's shadow,  

DLR